Regional Weather Roundup
Issued by NWS Albany, NY

Home | Current Version | Previous Version | Text Only | Print | Product List | Glossary Off
Versions: 1 2 3 4 5 6 7 8 9 10 11 12 13 14 15 16 17 18 19 20 21 22 23 24 25 26 27 28 29 30 31 32 33 34 35 36 37 38 39 40 41 42 43 44 45 46 47 48 49 50

840
ASUS41 KALY 222110
RWRALY

NEW YORK STATE HOURLY WEATHER ROUNDUP
NATIONAL WEATHER SERVICE ALBANY NY
400 PM EST SUN JAN 22 2017

NOTE: "FAIR" INDICATES FEW OR NO CLOUDS BELOW 12,000 FEET WITH NO
SIGNIFICANT WEATHER AND/OR NO OBSTRUCTIONS TO VISIBILITY.

NYZ032-033-038>043-046>054-057>066-NYZ062>081-082-084-222200-
EAST


CITY           SKY/WX    TMP DP  RH WIND       PRES   REMARKS
ALBANY         CLOUDY    42  37  82 N6        29.77S
GLENS FALLS    CLOUDY    39  35  86 N6        29.80R WCI  35
POUGHKEEPSIE   CLOUDY    50  44  80 CALM      29.71R
NEWBURGH       CLOUDY    50  46  87 CALM      29.71S
MONTGOMERY     CLOUDY    50  45  83 CALM      29.70R
WHITE PLAINS   CLOUDY    50  42  74 E12G21    29.71R
ISLIP          CLOUDY    51  45  79 E8        29.72R
NEW YORK CITY  LGT RAIN  45  41  86 NE12      29.71R FOG
CENTRAL PARK   CLOUDY    46  44  93 E8        29.73R FOG
$$

NYZ005>009-017-018-044>046-055-056-222200-
CENTRAL


CITY           SKY/WX    TMP DP  RH WIND       PRES   REMARKS
FULTON         CLEAR     45  39  79 N6        29.71R
SYRACUSE       MOCLDY    49  43  80 NE9       29.70R
ROME           CLOUDY    48  44  86 E7        29.74R
ELMIRA         CLOUDY    54  45  71 E10       29.64R
BINGHAMTON     PTCLDY    56  46  69 N3        29.66R
MONTICELLO     CLOUDY    52  46  82 E9        29.71R
$$

NYZ026>034-041>043-087-222200-
NORTH


CITY           SKY/WX    TMP DP  RH WIND       PRES   REMARKS
WATERTOWN      CLOUDY    38  35  89 NE18      29.77R WCI  28
FORT DRUM      NOT AVBL
OGDENSBURG     CLOUDY    36  29  78 NE17G23   29.83F WCI  25
MASSENA        MOCLDY    35  28  75 NE17      29.88S WCI  25
SARANAC LAKE   CLOUDY    32  29  88 NE13      29.76S WCI  22
PLATTSBURGH    CLOUDY    35  29  78 N13       29.88R WCI  26
$$

NYZ001>004-010>016-019>021-085-222200-
WEST


CITY           SKY/WX    TMP DP  RH WIND       PRES   REMARKS
NIAGARA FALLS  FOG       43  39  86 E17       29.67R VSB 3/4
BUFFALO        CLOUDY    44  42  93 NE10      29.66R FOG
DUNKIRK        FOG       42  41  96 N8        29.64R VSB 1/4
JAMESTOWN        N/A     54  46  76 E6        29.61S
WELLSVILLE     CLOUDY    56  48  74 E9        29.65R
ROCHESTER      FOG       41  40  96 NE9       29.72R VSB 3/4
PENN YAN       PTCLDY    51  44  77 VRB3      29.69R
$$

             KEY
       WCI = WIND CHILL INDEX
       VSB = VISIBILITY
       HX  = HEAT INDEX
$$




USA.gov is the U.S. government's official web portal to all federal, state and local government web resources and services.